Tracking 30995 objects as of 6-Jul-2025
HD Live streaming from Space Station
objects crossing your sky now

FENGYUN 1C DEB

Track FENGYUN 1C DEB now!
10-day predictions


NORAD ID: 30686
Int'l Code: 1999-025AQU
Perigee: 559.3 km
Apogee: 768.0 km
Inclination: 99.0 °
Period: 97.9 minutes
Semi major axis: 7034 km
RCS: 0.0215 m2 (small)
Launch date: May 10, 1999
Source: People's Republic of China (PRC)
Launch site: Taiyaun Space Center, China (TSC)

Note: This is SATELLITE DEBRIS
Your satellite tracking list
Your tracking list is empty




NASA's NSSDC Master Catalog

Two Line Element Set (TLE):
1 30686U 99025AQU 25186.48675818  .00003904  00000-0  54029-3 0  9996
2 30686  99.0370   2.4797 0148318 258.5551 161.6266 14.71419441972437
Source of the keplerian elements: AFSPC